This demonstration page uses our WeatherBlox Daily Observations layout. Learn more.

Left ArrowRight Arrow

Hourly Observations for April 30, 2015

Temp ( °F °C ) Dew Point ( °F °C ) Humidity (%) Winds ( mph kmh ) Pressure ( in mb ) Visibility ( mi km ) Precip ( " mm )
12:53 am 00:53 Clear 52 11.1 33 0.6 49 49 ESE 7 11 29.97 1015 10 16 0.00 0.00
1:53 am 01:53 Clear 51 10.6 32 0 48 48 SE 7 11 29.97 1015 10 16 0.00 0.00
2:53 am 02:53 Clear 53 11.7 33 0.6 47 47 SE 9 15 29.95 1014 10 16 0.00 0.00
3:53 am 03:53 Clear 51 10.6 33 0.6 50 50 SSE 5 7 29.96 1015 10 16 0.00 0.00
4:53 am 04:53 Clear 50 10 32 0 50 50 S 3 6 29.98 1015 10 16 0.00 0.00
5:53 am 05:53 Clear 49 9.4 33 0.6 55 55 S 5 7 29.98 1015 10 16 0.00 0.00
6:53 am 06:53 Sunny 48 8.9 34 1.1 58 58 S 3 6 29.98 1015 10 16 0.00 0.00
7:53 am 07:53 Sunny 55 12.8 38 3.3 53 53 SE 8 13 29.99 1016 10 16 0.00 0.00
8:53 am 08:53 Sunny 57 13.9 39 3.9 51 51 ESE 9 15 30.00 1016 10 16 0.00 0.00
9:53 am 09:53 Sunny 62 16.7 40 4.4 44 44 SE 13 20 30.00 1016 10 16 0.00 0.00
10:53 am 10:53 Sunny 66 18.9 39 3.9 37 37 SSE 13 20 30.00 1016 10 16 0.00 0.00
11:53 am 11:53 Sunny 70 21.1 39 3.9 32 32 SSE 10 17 29.98 1015 10 16 0.00 0.00
12:53 pm 12:53 Sunny 72 22.2 39 3.9 30 30 SSE 15 24 29.97 1015 10 16 0.00 0.00
1:53 pm 13:53 Sunny 73 22.8 41 5 32 32 SE 13 20 29.96 1015 10 16 0.00 0.00
2:53 pm 14:53 Sunny 74 23.3 41 5 31 31 S 12 19 29.94 1014 10 16 0.00 0.00
3:53 pm 15:53 Sunny 74 23.3 41 5 31 31 S 8 13 29.93 1014 10 16 0.00 0.00
4:53 pm 16:53 Sunny 74 23.3 41 5 31 31 SSE 10 17 29.92 1013 10 16 0.00 0.00
5:53 pm 17:53 Sunny 75 23.9 42 5.6 31 31 SSE 9 15 29.92 1013 10 16 0.00 0.00
6:53 pm 18:53 Sunny 73 22.8 41 5 32 32 SSE 10 17 29.93 1014 10 16 0.00 0.00
7:53 pm 19:53 Sunny 70 21.1 41 5 35 35 SSE 12 19 29.92 1013 10 16 0.00 0.00
8:53 pm 20:53 Clear 66 18.9 39 3.9 37 37 SE 12 19 29.94 1014 10 16 0.00 0.00
9:53 pm 21:53 Clear 64 17.8 39 3.9 40 40 SE 12 19 29.96 1015 10 16 0.00 0.00
10:53 pm 22:53 Clear 61 16.1 38 3.3 43 43 SSE 14 22 29.98 1015 10 16 0.00 0.00
11:53 pm 23:53 Clear 60 15.6 36 2.2 41 41 SSE 12 19 29.98 1015 10 16 0.00 0.00

Powered by AerisWeather